Regional Weather Roundup
Issued by NWS

Home | Current Version | Previous Version | Text Only | Print | Product List | Glossary On
Versions: 1 2 3 4 5 6 7 8 9 10 11 12 13 14 15 16 17 18 19 20 21 22 23 24 25 26 27 28 29 30 31 32 33 34 35 36 37 38 39 40 41 42 43 44 45 46 47 48 49 50
000
ASUS46 KSTO 261015
RWRCA

NORTHERN AND CENTRAL CA REGIONAL WEATHER ROUNDUP
NATIONAL WEATHER SERVICE SACRAMENTO CA
300 AM PDT FRI AUG 26 2016

NOTE: FAIR INDICATES FEW OR NO CLOUDS BELOW 12,000 FEET WITH NO
SIGNIFICANT WEATHER AND/OR OBSTRUCTIONS TO VISIBILITY.

CAZ001-003-261100-
NORTHWEST AREA

CITY           SKY/WX    TMP DP  RH WIND       PRES   REMARKS
CRESCENT CITY  CLOUDY    53  52  96 S7        29.88F FOG
UKIAH          FAIR      56  52  86 S6        29.87S
$$

CAZ006-505>513-261100-
BAY AREA

CITY           SKY/WX    TMP DP  RH WIND       PRES   REMARKS
SANTA ROSA     CLOUDY    58  55  90 CALM      29.88S
SAN RAFAEL     N/A       60  MM  MM MISG
NAPA           CLOUDY    59  55  87 W10       29.89S
CONCORD        CLOUDY    62  53  72 SW8       29.88S
OAKLAND CITY   N/A       60  MM  MM MISG
OAKLAND        CLOUDY    62  56  80 W8        29.89S
SAN FRAN CITY  N/A       59  MM  87 MISG
SAN FRAN ARPT  MOCLDY    60  54  80 CALM      29.89S
LIVERMORE      CLOUDY    59  54  83 W3        29.88S
HAYWARD        CLOUDY    63  54  72 W6        29.89S
REDWOOD CITY   N/A       61  MM  79 MISG
MOFFETT ARPT   CLOUDY    61  54  77 SE5       29.90R
SAN JOSE ARPT  CLOUDY    60  55  83 SE8       29.89S
$$
CAZ034-037-514>518-261100-
CENTRAL COAST

CITY           SKY/WX    TMP DP  RH WIND       PRES   REMARKS
WATSONVILLE    CLOUDY    58  56  93 CALM      29.91F
SALINAS        CLOUDY    59  55  87 NW3       29.91S
MONTEREY       CLOUDY    58  55  90 CALM      29.92S
SAN LUIS OBISP CLOUDY    60  54  80 NW5       29.92F
SANTA MARIA    CLOUDY    56  55  97 CALM      29.93S
$$
CAZ015-016-261100-
NORTHERN SACRAMENTO VALLEY

CITY           SKY/WX    TMP DP  RH WIND       PRES   REMARKS
REDDING        FAIR      68  50  52 CALM      29.83S
RED BLUFF      FAIR      65  54  67 W5        29.84R
OROVILLE       FAIR      62  54  74 CALM      29.85R
$$
CAZ016>018-261100-
SOUTHERN SACRAMENTO VALLEY

CITY           SKY/WX    TMP DP  RH WIND       PRES   REMARKS
AUBURN         FAIR      66  41  39 E6        29.88S
BEALE AFB      FAIR      56  53  87 S2        29.81S
LINCOLN        FAIR      59  52  77 S8        29.82F
MARYSVILLE     FAIR      59  54  83 S7        29.83S
SAC INTL ARPT  FAIR      58  54  86 SE13      29.81F
MATHER AIRPORT NOT AVBL
DOWNTOWN SAC   N/A       58  MM  MM MISG
SAC EXEC ARPT  FAIR      58  55  90 VRB6      29.83S
VACAVILLE      FAIR      61  52  72 SW10      29.81F
TRAVIS AFB     FAIR      58  54  86 SW26G32   29.80S
$$
CAZ019>021-261100-
SAN JOAQUIN VALLEY

CITY           SKY/WX    TMP DP  RH WIND       PRES   REMARKS
STOCKTON       FAIR      58  54  86 N7        29.84S
MODESTO        FAIR      63  53  70 NW8       29.82S
MERCED         FAIR      64  52  64 NW7       29.81F
LEMOORE        FAIR      69  50  50 NW13      29.82S
FRESNO         FAIR      68  53  58 NW8       29.81S
HANFORD        FAIR      69  52  54 NW10      29.81S
PORTERVILLE    FAIR      65  46  50 S7        29.83S
BAKERSFIELD    FAIR      75  40  28 NE6       29.83S
$$
CAZ011-012-071-261100-
NORTHERN MOUNTAINS

CITY           SKY/WX    TMP DP  RH WIND       PRES   REMARKS
YREKA          FAIR      54  27  35 E3        29.97S
MOUNT SHASTA   FAIR      53  37  54 CALM      30.01R
ALTURAS        FAIR      44  26  49 CALM      30.06S
$$
CAZ011-012-071-261100-
SIERRA NEVADA MTNS

CITY           SKY/WX    TMP DP  RH WIND       PRES   REMARKS
BLUE CANYON    FAIR      68  27  21 SE3       30.10F
TRUCKEE        FAIR      41  30  65 CALM      30.16S
TAHOE VLY ARPT FAIR      42  31  64 SW3       30.16S
MAMMOTH LAKES  FAIR      49  22  34 CALM      30.21S
$$




USA.gov is the U.S. government's official web portal to all federal, state and local government web resources and services.